FIN5KR EFRO-EFHK

Flight info

Callsign FIN5KR
Flight time 0h 54m
Altitude 33000
Route RENVI Y86 LUSEP
Aircraft A320/M-SDE3FGHIRWY/LB1

Departure

Time 2026-04-23 19:01
Airport Rovaniemi Airport (EFRO)

Arrival

Time 2026-04-23 19:55
Airport Helsinki Vantaa Airport (EFHK)
Time Latitude Longitude Altitude Speed Heading
2026-04-23 18:34 66.55788 25.82499 641 ft 0 kts 139°
2026-04-23 18:52 66.55804 25.82464 641 ft 4 kts 140°
2026-04-23 18:52 66.55825 25.82420 642 ft 4 kts 133°
2026-04-23 18:53 66.55837 25.82372 644 ft 4 kts 72°
2026-04-23 18:53 66.55825 25.82328 644 ft 2 kts 37°
2026-04-23 18:53 66.55823 25.82324 642 ft 1 kts 37°
2026-04-23 18:55 66.55833 25.82343 645 ft 6 kts 37°
2026-04-23 18:56 66.55895 25.82460 641 ft 14 kts 37°
2026-04-23 18:56 66.55973 25.82607 641 ft 14 kts 37°
2026-04-23 18:56 66.56053 25.82760 641 ft 17 kts 38°
2026-04-23 18:56 66.56162 25.82968 646 ft 20 kts 37°
2026-04-23 18:57 66.56277 25.83189 643 ft 21 kts 37°
2026-04-23 18:57 66.56407 25.83439 642 ft 27 kts 37°
2026-04-23 18:57 66.56561 25.83734 643 ft 28 kts 37°
2026-04-23 18:57 66.56721 25.84036 642 ft 30 kts 37°
2026-04-23 18:58 66.56895 25.84370 636 ft 29 kts 38°
2026-04-23 18:58 66.57037 25.84641 641 ft 26 kts 37°
2026-04-23 18:58 66.57188 25.84927 631 ft 29 kts 37°
2026-04-23 18:58 66.57339 25.85212 633 ft 25 kts 36°
2026-04-23 18:59 66.57422 25.85321 638 ft 9 kts 10°
2026-04-23 18:59 66.57464 25.85301 639 ft 5 kts 336°
2026-04-23 18:59 66.57502 25.85213 639 ft 8 kts 306°
2026-04-23 18:59 66.57514 25.85106 643 ft 5 kts 272°
2026-04-23 19:00 66.57511 25.85045 642 ft 6 kts 256°
2026-04-23 19:00 66.57428 25.84842 638 ft 39 kts 217°
2026-04-23 19:00 66.57015 25.84054 638 ft 107 kts 217°
2026-04-23 19:00 66.56274 25.82628 655 ft 158 kts 221°
2026-04-23 19:01 66.55410 25.80986 1222 ft 157 kts 214°
2026-04-23 19:01 66.54339 25.80095 1803 ft 166 kts 197°
2026-04-23 19:01 66.53145 25.79598 2154 ft 180 kts 193°
2026-04-23 19:01 66.51825 25.79123 2340 ft 207 kts 193°
2026-04-23 19:02 66.50313 25.78568 2589 ft 232 kts 193°
2026-04-23 19:02 66.48634 25.77932 2921 ft 256 kts 193°
2026-04-23 19:02 66.46796 25.77213 3357 ft 278 kts 193°
2026-04-23 19:02 66.44856 25.76445 4147 ft 286 kts 193°
2026-04-23 19:03 66.42889 25.75572 5026 ft 289 kts 195°
2026-04-23 19:03 66.40921 25.74430 5961 ft 291 kts 197°
2026-04-23 19:03 66.38954 25.73154 6831 ft 293 kts 198°
2026-04-23 19:03 66.36975 25.71829 7687 ft 296 kts 198°
2026-04-23 19:04 66.34974 25.70490 8543 ft 299 kts 199°
2026-04-23 19:04 66.32951 25.69155 9419 ft 302 kts 199°
2026-04-23 19:04 66.30896 25.67823 10081 ft 312 kts 199°
2026-04-23 19:04 66.28746 25.66438 10306 ft 335 kts 198°
2026-04-23 19:05 66.26332 25.65739 10735 ft 353 kts 185°
2026-04-23 19:05 66.23843 25.65523 11382 ft 360 kts 185°
2026-04-23 19:05 66.21317 25.65300 12054 ft 367 kts 185°
2026-04-23 19:05 66.18746 25.65069 12716 ft 373 kts 186°
2026-04-23 19:06 66.16134 25.64830 13364 ft 379 kts 186°
2026-04-23 19:06 66.13511 25.64591 13958 ft 385 kts 186°
2026-04-23 19:06 66.10816 25.64349 14513 ft 391 kts 186°
2026-04-23 19:06 66.08082 25.64108 15101 ft 396 kts 186°
2026-04-23 19:07 66.05307 25.63867 15661 ft 401 kts 186°
2026-04-23 19:07 66.02495 25.63639 16212 ft 407 kts 186°
2026-04-23 19:07 65.99644 25.63484 16763 ft 413 kts 185°
2026-04-23 19:07 65.96759 25.63230 17300 ft 417 kts 188°
2026-04-23 19:08 65.93845 25.62697 17851 ft 421 kts 191°
2026-04-23 19:08 65.90914 25.61972 18337 ft 426 kts 192°
2026-04-23 19:08 65.87948 25.61158 18787 ft 431 kts 192°
2026-04-23 19:08 65.84950 25.60339 19234 ft 437 kts 192°
2026-04-23 19:09 65.81901 25.59556 19686 ft 443 kts 192°
2026-04-23 19:09 65.78815 25.58823 20139 ft 449 kts 192°
2026-04-23 19:09 65.75679 25.58119 20575 ft 455 kts 192°
2026-04-23 19:09 65.72505 25.57428 21002 ft 461 kts 192°
2026-04-23 19:10 65.69294 25.56731 21435 ft 466 kts 192°
2026-04-23 19:10 65.66041 25.56015 21864 ft 472 kts 192°
2026-04-23 19:10 65.62755 25.55279 22305 ft 477 kts 192°
2026-04-23 19:10 65.59432 25.54531 22744 ft 483 kts 193°
2026-04-23 19:11 65.56067 25.53779 23169 ft 488 kts 193°
2026-04-23 19:11 65.52670 25.53018 23537 ft 493 kts 193°
2026-04-23 19:11 65.49244 25.52254 23911 ft 497 kts 193°
2026-04-23 19:11 65.45790 25.51489 24278 ft 500 kts 193°
2026-04-23 19:12 65.43492 25.50983 24526 ft 502 kts 193°
2026-04-23 19:12 65.38819 25.49960 25022 ft 506 kts 192°
2026-04-23 19:12 65.35296 25.49192 25375 ft 510 kts 192°
2026-04-23 19:12 65.31752 25.48421 25735 ft 513 kts 193°
2026-04-23 19:13 65.28192 25.47647 26069 ft 516 kts 192°
2026-04-23 19:13 65.24653 25.46880 26405 ft 519 kts 192°
2026-04-23 19:13 65.21051 25.46103 26737 ft 522 kts 192°
2026-04-23 19:13 65.17426 25.45319 27076 ft 524 kts 192°
2026-04-23 19:14 65.13781 25.44530 27397 ft 527 kts 192°
2026-04-23 19:14 65.10118 25.43735 27714 ft 530 kts 192°
2026-04-23 19:14 65.06428 25.42940 28030 ft 533 kts 192°
2026-04-23 19:14 65.02724 25.42150 28339 ft 536 kts 192°
2026-04-23 19:15 64.98999 25.41355 28635 ft 539 kts 192°
2026-04-23 19:15 64.95253 25.40555 28928 ft 542 kts 192°
2026-04-23 19:15 64.91493 25.39752 29214 ft 544 kts 192°
2026-04-23 19:15 64.87702 25.38948 29493 ft 547 kts 192°
2026-04-23 19:16 64.83906 25.38150 29771 ft 550 kts 192°
2026-04-23 19:16 64.80087 25.37345 30007 ft 552 kts 192°
2026-04-23 19:16 64.76256 25.36539 30264 ft 553 kts 192°
2026-04-23 19:17 64.68566 25.34943 30777 ft 555 kts 192°
2026-04-23 19:17 64.64718 25.34146 31025 ft 556 kts 192°
2026-04-23 19:17 64.60907 25.33362 31353 ft 554 kts 192°
2026-04-23 19:17 64.57030 25.32570 31720 ft 552 kts 192°
2026-04-23 19:18 64.53210 25.31787 32094 ft 550 kts 192°
2026-04-23 19:18 64.49459 25.31015 32451 ft 548 kts 192°
2026-04-23 19:18 64.45665 25.30231 32725 ft 547 kts 192°
2026-04-23 19:18 64.41902 25.29456 32786 ft 537 kts 192°
2026-04-23 19:19 64.30834 25.27217 32786 ft 527 kts 192°
2026-04-23 19:20 64.19924 25.24994 32793 ft 527 kts 192°
2026-04-23 19:20 64.12619 25.23503 32791 ft 527 kts 192°
2026-04-23 19:21 64.01663 25.21345 32785 ft 527 kts 191°
2026-04-23 19:22 63.94364 25.19897 32780 ft 526 kts 191°
2026-04-23 19:22 63.83430 25.17742 32782 ft 526 kts 191°
2026-04-23 19:23 63.76143 25.16322 32788 ft 526 kts 191°
2026-04-23 19:24 63.65203 25.14197 32786 ft 525 kts 191°
2026-04-23 19:24 63.54284 25.12100 32790 ft 525 kts 191°
2026-04-23 19:25 63.39774 25.09316 32796 ft 524 kts 191°
2026-04-23 19:26 63.28869 25.07264 32797 ft 524 kts 191°
2026-04-23 19:27 63.10711 25.03855 32796 ft 524 kts 191°
2026-04-23 19:28 62.96190 25.01166 32801 ft 524 kts 191°
2026-04-23 19:29 62.85300 24.99163 32799 ft 523 kts 191°
2026-04-23 19:30 62.74416 24.97178 32801 ft 523 kts 190°
2026-04-23 19:31 62.63534 24.95204 32802 ft 523 kts 190°
2026-04-23 19:31 62.56273 24.93902 32803 ft 523 kts 190°
2026-04-23 19:32 62.49067 24.92613 32803 ft 523 kts 190°
2026-04-23 19:32 62.41813 24.91322 32802 ft 523 kts 190°
2026-04-23 19:33 62.34550 24.90034 32805 ft 524 kts 190°
2026-04-23 19:33 62.23654 24.88124 32807 ft 524 kts 189°
2026-04-23 19:34 62.16387 24.86856 32802 ft 524 kts 189°
2026-04-23 19:35 62.05487 24.84946 32795 ft 524 kts 189°
2026-04-23 19:35 61.98217 24.83696 32791 ft 524 kts 189°
2026-04-23 19:36 61.90943 24.82450 32789 ft 524 kts 189°
2026-04-23 19:36 61.83670 24.81208 32791 ft 524 kts 189°
2026-04-23 19:37 61.76441 24.79975 32439 ft 515 kts 189°
2026-04-23 19:37 61.72891 24.79373 32057 ft 510 kts 189°
2026-04-23 19:37 61.69348 24.78774 31421 ft 511 kts 189°
2026-04-23 19:37 61.65802 24.78174 30831 ft 511 kts 189°
2026-04-23 19:38 61.62251 24.77570 30233 ft 512 kts 189°
2026-04-23 19:38 61.58705 24.76964 29613 ft 512 kts 189°
2026-04-23 19:38 61.55157 24.76360 29031 ft 510 kts 189°
2026-04-23 19:38 61.51632 24.75770 28473 ft 507 kts 189°
2026-04-23 19:39 61.48123 24.75191 27911 ft 505 kts 189°
2026-04-23 19:39 61.44629 24.74615 27353 ft 502 kts 189°
2026-04-23 19:39 61.41152 24.74036 26788 ft 500 kts 189°
2026-04-23 19:39 61.38865 24.73652 26529 ft 496 kts 188°
2026-04-23 19:40 61.35424 24.73074 25915 ft 496 kts 188°
2026-04-23 19:40 61.32020 24.72512 25510 ft 485 kts 188°
2026-04-23 19:40 61.28671 24.71969 24734 ft 479 kts 188°
2026-04-23 19:40 61.25373 24.71429 24066 ft 471 kts 188°
2026-04-23 19:41 61.22138 24.70896 23486 ft 461 kts 188°
2026-04-23 19:41 61.18972 24.70377 22837 ft 451 kts 188°
2026-04-23 19:41 61.15891 24.69878 22297 ft 439 kts 188°
2026-04-23 19:41 61.12887 24.69394 21751 ft 428 kts 188°
2026-04-23 19:42 61.09928 24.68912 21230 ft 426 kts 188°
2026-04-23 19:42 61.06969 24.68422 20701 ft 427 kts 188°
2026-04-23 19:42 61.04005 24.67933 20172 ft 428 kts 188°
2026-04-23 19:42 61.01033 24.67444 19638 ft 427 kts 188°
2026-04-23 19:43 60.98104 24.66971 19126 ft 416 kts 188°
2026-04-23 19:43 60.95253 24.66521 18625 ft 406 kts 188°
2026-04-23 19:43 60.92467 24.66082 18125 ft 397 kts 188°
2026-04-23 19:43 60.89739 24.65648 17556 ft 390 kts 188°
2026-04-23 19:44 60.87056 24.65217 16991 ft 384 kts 188°
2026-04-23 19:44 60.84402 24.64791 16438 ft 380 kts 188°
2026-04-23 19:44 60.81788 24.64370 15896 ft 375 kts 188°
2026-04-23 19:44 60.79202 24.63951 15363 ft 370 kts 187°
2026-04-23 19:45 60.76650 24.63536 14839 ft 366 kts 187°
2026-04-23 19:45 60.74125 24.63124 14322 ft 361 kts 187°
2026-04-23 19:45 60.71640 24.62721 13775 ft 357 kts 187°
2026-04-23 19:45 60.69132 24.62314 12706 ft 365 kts 187°
2026-04-23 19:46 60.66616 24.61914 11938 ft 362 kts 186°
2026-04-23 19:46 60.64108 24.61519 11512 ft 358 kts 186°
2026-04-23 19:46 60.61644 24.61130 11128 ft 354 kts 186°
2026-04-23 19:46 60.59201 24.60741 10698 ft 350 kts 186°
2026-04-23 19:47 60.56823 24.60364 10488 ft 335 kts 186°
2026-04-23 19:47 60.54530 24.60005 10056 ft 326 kts 186°
2026-04-23 19:47 60.52779 24.59731 9594 ft 322 kts 186°
2026-04-23 19:47 60.50576 24.59387 8962 ft 317 kts 186°
2026-04-23 19:48 60.48422 24.59055 8364 ft 311 kts 186°
2026-04-23 19:48 60.46290 24.58729 7846 ft 303 kts 186°
2026-04-23 19:48 60.44224 24.58410 7411 ft 296 kts 186°
2026-04-23 19:48 60.42167 24.58083 6980 ft 297 kts 186°
2026-04-23 19:49 60.40105 24.57753 6534 ft 297 kts 186°
2026-04-23 19:49 60.38053 24.57429 6155 ft 295 kts 186°
2026-04-23 19:49 60.36018 24.57111 5790 ft 290 kts 186°
2026-04-23 19:49 60.33998 24.56797 5322 ft 290 kts 186°
2026-04-23 19:50 60.32007 24.56490 5018 ft 284 kts 186°
2026-04-23 19:50 60.30081 24.56198 4887 ft 271 kts 186°
2026-04-23 19:50 60.28252 24.56029 4713 ft 256 kts 177°
2026-04-23 19:50 60.26548 24.56821 4366 ft 249 kts 156°
2026-04-23 19:51 60.25066 24.58659 3835 ft 255 kts 136°
2026-04-23 19:51 60.23870 24.61252 3395 ft 252 kts 122°
2026-04-23 19:51 60.23132 24.64353 3063 ft 237 kts 103°
2026-04-23 19:51 60.22898 24.67481 2901 ft 219 kts 86°
2026-04-23 19:52 60.23077 24.70449 2692 ft 209 kts 71°
2026-04-23 19:52 60.23601 24.73097 2469 ft 199 kts 57°
2026-04-23 19:52 60.24384 24.75275 2228 ft 185 kts 44°
2026-04-23 19:52 60.25218 24.77090 1964 ft 173 kts 44°
2026-04-23 19:53 60.26004 24.78808 1754 ft 158 kts 44°
2026-04-23 19:53 60.26712 24.80357 1528 ft 144 kts 44°
2026-04-23 19:53 60.27380 24.81816 1306 ft 140 kts 44°
2026-04-23 19:53 60.28032 24.83245 1100 ft 138 kts 45°
2026-04-23 19:54 60.28684 24.84671 922 ft 139 kts 45°
2026-04-23 19:54 60.29341 24.86105 727 ft 139 kts 45°
2026-04-23 19:54 60.29999 24.87541 547 ft 140 kts 46°
2026-04-23 19:54 60.30659 24.88988 353 ft 140 kts 46°
2026-04-23 19:55 60.31318 24.90423 180 ft 139 kts 45°
2026-04-23 19:55 60.31920 24.91756 151 ft 112 kts 47°
2026-04-23 19:55 60.32324 24.92638 170 ft 54 kts 46°
2026-04-23 19:55 60.32446 24.93102 175 ft 36 kts 77°
2026-04-23 19:56 60.32481 24.93419 174 ft 18 kts 77°
2026-04-23 19:56 60.32511 24.93686 171 ft 21 kts 77°
2026-04-23 19:56 60.32546 24.93926 170 ft 16 kts 55°
2026-04-23 19:56 60.32618 24.94094 171 ft 16 kts 47°
2026-04-23 19:57 60.32693 24.94259 172 ft 16 kts 47°
2026-04-23 19:57 60.32771 24.94430 173 ft 17 kts 47°
2026-04-23 19:57 60.32855 24.94614 174 ft 18 kts 47°
2026-04-23 19:57 60.32942 24.94806 177 ft 18 kts 47°
2026-04-23 19:58 60.33034 24.95007 176 ft 21 kts 48°
2026-04-23 19:58 60.33132 24.95222 177 ft 22 kts 47°
2026-04-23 19:58 60.33208 24.95417 182 ft 14 kts 72°
2026-04-23 19:58 60.33177 24.95574 181 ft 13 kts 135°
2026-04-23 19:59 60.33088 24.95742 180 ft 22 kts 138°
2026-04-23 19:59 60.32952 24.95910 177 ft 25 kts 150°
2026-04-23 19:59 60.32818 24.96067 174 ft 21 kts 150°
2026-04-23 19:59 60.32686 24.96222 172 ft 23 kts 149°
2026-04-23 20:00 60.32543 24.96390 174 ft 24 kts 149°
2026-04-23 20:00 60.32414 24.96541 175 ft 19 kts 150°
2026-04-23 20:00 60.32321 24.96647 169 ft 8 kts 150°
2026-04-23 20:00 60.32309 24.96660 168 ft 0 kts 150°
2026-04-23 20:01 60.32306 24.96664 168 ft 3 kts 150°
2026-04-23 20:01 60.32259 24.96717 166 ft 9 kts 150°
2026-04-23 20:01 60.32203 24.96784 166 ft 11 kts 149°
2026-04-23 20:02 60.32126 24.96870 166 ft 9 kts 165°
2026-04-23 20:02 60.32080 24.96817 166 ft 8 kts 227°
2026-04-23 20:02 60.32021 24.96689 167 ft 15 kts 227°
2026-04-23 20:02 60.31944 24.96522 167 ft 17 kts 227°
2026-04-23 20:03 60.31912 24.96479 167 ft 4 kts 175°
2026-04-23 20:03 60.31884 24.96522 167 ft 5 kts 139°
2026-04-23 20:03 60.31871 24.96546 167 ft 0 kts 138°